This is the latest recevied weather packets stored in our database for station/object IZ4UFQ-10. If no packets are shown the sender has not sent any weather packets the latest 1 day(s).
| Time | Temp. | Humidity | Pressure | Rain* | Wind** | Luminosity | Snow |
|---|---|---|---|---|---|---|---|
| 1777969872 | 15° C | 91% | 1013 hPa | 0 mm | 0 m/s | 70 W/m² | - |
| 1777969571 | 15° C | 91% | 1012.9 hPa | 0 mm | 0 m/s | 77 W/m² | - |
| 1777969271 | 15° C | 92% | 1012.8 hPa | 0 mm | 0 m/s | 91 W/m² | - |
| 1777968971 | 15° C | 92% | 1012.7 hPa | 0 mm | 0 m/s | 123 W/m² | - |
| 1777968671 | 15° C | 91% | 1012.7 hPa | 0 mm | 0 m/s | 156 W/m² | - |
| 1777968370 | 15° C | 92% | 1012.5 hPa | 0 mm | 0 m/s | 285 W/m² | - |
| 1777968070 | 14.44° C | 92% | 1012.6 hPa | 0 mm | 0 m/s | 290 W/m² | - |
| 1777967770 | 14.44° C | 91% | 1012.7 hPa | 0 mm | 0 m/s | 541 W/m² | - |
| 1777967469 | 14.44° C | 91% | 1012.7 hPa | 0.25 mm | 0 m/s | 327 W/m² | - |
| 1777967169 | 14.44° C | 91% | 1012.7 hPa | 0.51 mm | 0 m/s | 169 W/m² | - |
| 1777966869 | 13.89° C | 91% | 1012.7 hPa | 0.76 mm | 0 m/s | 90 W/m² | - |
| 1777966569 | 13.89° C | 90% | 1012.8 hPa | 1.27 mm | 0 m/s | 86 W/m² | - |
| 1777966268 | 13.89° C | 90% | 1012.8 hPa | 1.78 mm | 0 m/s | 162 W/m² | - |
| 1777965968 | 13.89° C | 90% | 1012.9 hPa | 2.54 mm | 0 m/s | 100 W/m² | - |
| 1777965668 | 13.89° C | 90% | 1012.9 hPa | 3.05 mm | 0 m/s | 84 W/m² | - |
| 1777965367 | 13.89° C | 90% | 1012.9 hPa | 4.06 mm | 0 m/s | 95 W/m² | - |
| 1777965067 | 13.89° C | 90% | 1012.9 hPa | 4.83 mm | 0 m/s | 74 W/m² | - |
| 1777964767 | 13.89° C | 89% | 1013 hPa | 5.59 mm | 0 m/s | 72 W/m² | - |
| 1777964467 | 13.89° C | 89% | 1013 hPa | 6.1 mm | 0 m/s | 84 W/m² | - |
| 1777964166 | 13.89° C | 89% | 1012.9 hPa | 6.6 mm | 0 m/s | 102 W/m² | - |
| 1777963866 | 13.89° C | 89% | 1012.9 hPa | 6.6 mm | 0 m/s | 67 W/m² | - |
| 1777963566 | 13.89° C | 88% | 1013.2 hPa | 6.6 mm | 0 m/s | 40 W/m² | - |
| 1777963265 | 13.89° C | 88% | 1013.1 hPa | 6.35 mm | 0 m/s | 28 W/m² | - |
| 1777962965 | 13.89° C | 87% | 1013 hPa | 5.84 mm | 0 m/s | 19 W/m² | - |
| 1777962665 | 14.44° C | 86% | 1013.1 hPa | 5.33 mm | 0 m/s | 14 W/m² | - |
* Rain latest hour (hover to see other rain measurements)
** Current wind speed in m/s (hover to see current wind gust speed)